CES6151 ZBAD-ZGGG

Flight info

Callsign CES6151
Flight time N/A
Altitude 36100
Route PIM81D PIMOL A593 DALIM W157 BEKDO/K0837S1010 W157 AVBOX AVBOX9M
Aircraft A320/M-SDE2E3FGILRWXY/LB2

Departure

Time 2026-05-06 07:50
Airport Beijing Daxing International Airport (ZBAD)

Arrival

Time N/A
Airport Guangzhou Baiyun International Airport (ZGGG)
Time Latitude Longitude Altitude Speed Heading
2026-05-06 07:30 39.51197 116.41660 85 ft 0 kts 341°
2026-05-06 07:39 39.51185 116.41665 87 ft 4 kts 343°
2026-05-06 07:39 39.51159 116.41674 86 ft 4 kts 353°
2026-05-06 07:40 39.51133 116.41673 87 ft 4 kts 21°
2026-05-06 07:40 39.51117 116.41658 90 ft 1 kts 71°
2026-05-06 07:40 39.51116 116.41653 90 ft 0 kts 71°
2026-05-06 07:40 39.51116 116.41652 90 ft 0 kts 71°
2026-05-06 07:43 39.51118 116.41660 90 ft 2 kts 72°
2026-05-06 07:43 39.51124 116.41685 77 ft 4 kts 70°
2026-05-06 07:44 39.51136 116.41726 100 ft 6 kts 71°
2026-05-06 07:44 39.51149 116.41787 85 ft 8 kts 79°
2026-05-06 07:44 39.51157 116.41867 84 ft 10 kts 82°
2026-05-06 07:44 39.51167 116.41964 87 ft 12 kts 83°
2026-05-06 07:45 39.51178 116.42075 84 ft 13 kts 83°
2026-05-06 07:45 39.51198 116.42151 86 ft 10 kts 39°
2026-05-06 07:45 39.51269 116.42154 86 ft 11 kts 352°
2026-05-06 07:45 39.51353 116.42140 89 ft 13 kts 353°
2026-05-06 07:46 39.51414 116.42187 86 ft 11 kts 81°
2026-05-06 07:46 39.51425 116.42294 90 ft 13 kts 82°
2026-05-06 07:46 39.51436 116.42413 84 ft 14 kts 82°
2026-05-06 07:46 39.51448 116.42545 85 ft 16 kts 83°
2026-05-06 07:47 39.51462 116.42689 85 ft 17 kts 83°
2026-05-06 07:47 39.51476 116.42840 86 ft 16 kts 83°
2026-05-06 07:47 39.51490 116.42987 86 ft 11 kts 83°
2026-05-06 07:47 39.51501 116.43078 90 ft 9 kts 72°
2026-05-06 07:48 39.51549 116.43111 91 ft 7 kts 12°
2026-05-06 07:48 39.51558 116.43114 91 ft 0 kts 13°
2026-05-06 07:48 39.51560 116.43115 91 ft 3 kts 12°
2026-05-06 07:48 39.51588 116.43123 93 ft 4 kts 14°
2026-05-06 07:49 39.51608 116.43141 95 ft 5 kts 44°
2026-05-06 07:49 39.51633 116.43191 97 ft 10 kts 58°
2026-05-06 07:49 39.51644 116.43283 99 ft 11 kts 101°
2026-05-06 07:49 39.51615 116.43442 99 ft 40 kts 102°
2026-05-06 07:50 39.51501 116.44067 97 ft 100 kts 103°
2026-05-06 07:50 39.51307 116.45145 98 ft 144 kts 103°
2026-05-06 07:50 39.51056 116.46531 225 ft 168 kts 101°
2026-05-06 07:50 39.50794 116.47995 890 ft 166 kts 102°
2026-05-06 07:51 39.50531 116.49479 1358 ft 178 kts 101°
2026-05-06 07:51 39.50242 116.51135 1607 ft 200 kts 101°
2026-05-06 07:51 39.49912 116.52980 1853 ft 222 kts 100°
2026-05-06 07:51 39.49547 116.55035 2209 ft 245 kts 100°
2026-05-06 07:52 39.49155 116.57224 2923 ft 254 kts 101°
2026-05-06 07:52 39.48749 116.59475 3694 ft 260 kts 99°
2026-05-06 07:52 39.48332 116.61782 4483 ft 266 kts 98°
2026-05-06 07:52 39.47906 116.64155 4849 ft 273 kts 98°
2026-05-06 07:53 39.47520 116.66529 4943 ft 273 kts 97°
2026-05-06 07:53 39.47161 116.68946 4958 ft 274 kts 96°
2026-05-06 07:53 39.46812 116.71362 4958 ft 273 kts 95°
2026-05-06 07:53 39.46461 116.73775 4955 ft 272 kts 97°
2026-05-06 07:54 39.45835 116.75964 4961 ft 278 kts 116°
2026-05-06 07:54 39.44645 116.77833 4987 ft 286 kts 137°
2026-05-06 07:54 39.42906 116.79140 5292 ft 296 kts 158°
2026-05-06 07:54 39.40978 116.80077 6172 ft 297 kts 159°
2026-05-06 07:55 39.39068 116.81038 6920 ft 301 kts 159°
2026-05-06 07:55 39.37113 116.82036 7688 ft 303 kts 160°
2026-05-06 07:55 39.35139 116.83048 8433 ft 307 kts 160°
2026-05-06 07:55 39.33145 116.84066 9189 ft 310 kts 161°
2026-05-06 07:56 39.31126 116.85093 9917 ft 313 kts 162°
2026-05-06 07:56 39.29071 116.86135 10342 ft 327 kts 162°
2026-05-06 07:56 39.26877 116.87238 10478 ft 350 kts 162°
2026-05-06 07:56 39.24540 116.88413 10604 ft 371 kts 161°
2026-05-06 07:57 39.22111 116.89635 10768 ft 388 kts 161°
2026-05-06 07:57 39.19569 116.90919 11252 ft 395 kts 161°
2026-05-06 07:57 39.17006 116.92218 11856 ft 397 kts 161°
2026-05-06 07:57 39.14431 116.93521 12500 ft 397 kts 162°
2026-05-06 07:58 39.11855 116.94822 13179 ft 398 kts 162°
2026-05-06 07:58 39.09274 116.96125 13779 ft 399 kts 162°
2026-05-06 07:58 39.06684 116.97427 14311 ft 401 kts 163°
2026-05-06 07:58 39.04115 116.98716 14568 ft 401 kts 163°
2026-05-06 07:59 39.01515 117.00020 14632 ft 400 kts 163°
2026-05-06 07:59 38.98922 117.01320 14631 ft 400 kts 163°
2026-05-06 07:59 38.96332 117.02618 14633 ft 400 kts 163°
2026-05-06 07:59 38.93737 117.03916 14632 ft 400 kts 163°
2026-05-06 08:00 38.91148 117.05213 14618 ft 398 kts 163°
2026-05-06 08:00 38.88556 117.06419 14625 ft 392 kts 171°
2026-05-06 08:00 38.85890 117.06794 14624 ft 382 kts 187°
2026-05-06 08:00 38.83354 117.06185 14628 ft 374 kts 203°
2026-05-06 08:01 38.81071 117.04675 14631 ft 368 kts 218°
2026-05-06 08:01 38.79231 117.02427 14628 ft 365 kts 233°
2026-05-06 08:01 38.77908 116.99663 14627 ft 364 kts 242°
2026-05-06 08:01 38.76714 116.96798 14627 ft 364 kts 242°
2026-05-06 08:02 38.75519 116.93935 14627 ft 365 kts 242°
2026-05-06 08:02 38.74322 116.91071 14613 ft 365 kts 242°
2026-05-06 08:02 38.73123 116.88213 14630 ft 364 kts 242°
2026-05-06 08:02 38.71933 116.85395 14630 ft 364 kts 242°
2026-05-06 08:03 38.70730 116.82542 14638 ft 364 kts 242°
2026-05-06 08:03 38.69526 116.79685 14636 ft 364 kts 242°
2026-05-06 08:03 38.68324 116.76829 14630 ft 364 kts 242°
2026-05-06 08:03 38.67125 116.73980 14633 ft 364 kts 242°
2026-05-06 08:04 38.65924 116.71131 14633 ft 364 kts 242°
2026-05-06 08:04 38.64854 116.68249 14629 ft 364 kts 249°
2026-05-06 08:04 38.64223 116.65114 14635 ft 366 kts 260°
2026-05-06 08:04 38.64095 116.61853 14640 ft 368 kts 269°
2026-05-06 08:05 38.64198 116.58579 14638 ft 368 kts 270°
2026-05-06 08:05 38.64297 116.55305 14642 ft 369 kts 270°
2026-05-06 08:05 38.64391 116.52030 14632 ft 369 kts 270°
2026-05-06 08:05 38.64481 116.48742 14640 ft 370 kts 270°
2026-05-06 08:06 38.64569 116.45462 14638 ft 369 kts 269°
2026-05-06 08:06 38.64656 116.42229 14641 ft 368 kts 269°
2026-05-06 08:06 38.64743 116.38952 14641 ft 369 kts 269°
2026-05-06 08:06 38.64830 116.35676 14641 ft 369 kts 269°
2026-05-06 08:07 38.64915 116.32397 14633 ft 369 kts 269°
2026-05-06 08:07 38.64999 116.29122 14643 ft 368 kts 269°
2026-05-06 08:07 38.65081 116.25844 14650 ft 369 kts 269°
2026-05-06 08:07 38.65165 116.22563 14645 ft 370 kts 270°
2026-05-06 08:08 38.65246 116.19316 14643 ft 370 kts 270°
2026-05-06 08:08 38.65330 116.16015 14642 ft 370 kts 270°
2026-05-06 08:08 38.65434 116.12727 14640 ft 371 kts 273°
2026-05-06 08:08 38.65910 116.09473 14637 ft 374 kts 284°
2026-05-06 08:09 38.66914 116.06377 14906 ft 382 kts 295°
2026-05-06 08:09 38.68325 116.03477 15463 ft 385 kts 298°
2026-05-06 08:09 38.69772 116.00575 15967 ft 388 kts 298°
2026-05-06 08:09 38.71205 115.97686 16455 ft 391 kts 298°
2026-05-06 08:10 38.72663 115.94740 16967 ft 393 kts 297°
2026-05-06 08:10 38.74134 115.91762 17451 ft 397 kts 297°
2026-05-06 08:10 38.75617 115.88768 17941 ft 400 kts 297°
2026-05-06 08:10 38.77110 115.85756 18401 ft 402 kts 297°
2026-05-06 08:11 38.78612 115.82723 18880 ft 403 kts 297°
2026-05-06 08:11 38.80114 115.79686 19368 ft 404 kts 297°